Weather in Golumet

Russia / Irkutsk Oblast     53°02′51″N   102°22′28″E
temp.,
°C
wind,
m/s
gust,
m/s
humid.,
%
clouds,
%
prec.,
mm/h
press.,
hPa
HPBL,
m
16 may, sun
sun1623:00+10ssw226699 0.0 101635
02:00+7ssw237037 0.0 101452
05:00+7sw3136212 0.0 1012221
08:00+13nnw51151100 0.0 1012493
11:00+12wsw267219 0.3 1013276
14:00+15nnw4555100 0.4 10131320
17:00+13nne4365100 0.0 1013991
20:00+11e127657 0.3 101275
17 may, mon
mon1723:00+8ese2392100 0.1 101051
02:00+8e1292100 0.1 100674
05:00+7nnw2495100 0.4 1005197
08:00+5nnw5992100 4.4 1010676
11:00+5nw4893100 0.4 1013805
14:00+7nw4779100 0.6 10131015
17:00+11nw475799 0.1 10121574
20:00+8w357888 0.1 1014568
18 may, tue
tue1823:00+5wsw3694100 0.0 1015126
02:00+5wsw2391100 0.0 101555
05:00+5sw229088 0.1 101459
08:00+7sw2279100 0.2 1014626
11:00+7sw1283100 0.3 1013707
14:00+11nw116469 0.4 1010918
17:00+13ese225381 0.0 10061183
20:00+10ene3569100 0.0 1003151
19 may, wed
wed1923:00+8ne2376100 0.1 100178
02:00+6n2292100 0.2 100247
05:00+6nnw1292100 0.1 1002119
08:00+7s0190100 0.3 1002148
11:00+8e1285100 0.0 1002428
14:00+7nne3695100 3.6 1004362
17:00+7nw1287100 2.7 1005388
20:00+6n1292100 2.8 1005146
20 may, thu
thu2023:00+6ene119598 0.1 100428
02:00+5e1296100 0.1 100258
05:00+5ene1196100 0.1 100025
08:00+6nne1295100 0.3 1001170
11:00+6ne1295100 0.2 1002222
14:00+7e2492100 0.2 1001384
17:00+8ese3691100 0.1 1000570
20:00+7ese1393100 0.1 1000127